Weather History for Oceana NAS, VA

Change the Weather History Date:

Tuesday, October 9, 2012

  Actual Average Record
Temperature  
Mean Temperature 60 °F -  
Max Temperature 63 °F 70 °F 93 °F (2007)
Min Temperature 57 °F 53 °F 41 °F (2001)
Degree Days  
Heating Degree Days 5    
Growing Degree Days 10 (Base 50)    
Moisture  
Dew Point 58 °F    
Average Humidity 91    
Maximum Humidity 96    
Minimum Humidity 86    
Precipitation  
Precipitation 0.05 in - - ()
Sea Level Pressure  
Sea Level Pressure 30.06 in    
Wind  
Wind Speed 9 mph (North)    
Max Wind Speed 14 mph    
Max Gust Speed -    
Visibility 5 miles    
Events Rain    
Averages and records for this station are not official NWS values.
T = Trace of Precipitation, MM = Missing Value Source: NWS Daily Summary

Daily Weather History Graph

Daily Weather History Graph

Search for Another Location

Airport:

Trip Planner

Search our weather history database for the weather conditions in past years. The results will help you decide how hot, cold, wet, or windy it might be!

Date:

Astronomy

Oct. 09, 2012 Rise Set
Actual Time 7:06 AM EDT 6:35 PM EDT
Civil Twilight 6:40 AM EDT 7:01 PM EDT
Nautical Twilight 6:10 AM EDT 7:31 PM EDT
Astronomical Twilight 5:40 AM EDT 8:01 PM EDT
Moon 12:49 AM EDT (10/9) 2:53 PM EDT (10/9)
Length of Visible Light 12h 20m
Length of Day
11h 28m
Last Quarter, 37% of the Moon is Illuminated
Oct 9
Last Quarter
Oct 15
New
Oct 21
First Quarter
Oct 29
Full
Nov 6
Last Quarter

Hourly Weather History & Observations

Time (EDT) Temp. Dew Point Humidity Pressure Visibility Wind Dir Wind Speed Gust Speed Precip Events Conditions
12:18 AM 57.2 °F 55.4 °F 94% 30.07 in 5.0 mi North 9.2 mph - N/A   Overcast
12:56 AM 59.0 °F 57.0 °F 93% 30.06 in 4.0 mi North 11.5 mph - N/A   Overcast
1:56 AM 60.1 °F 57.9 °F 93% 30.06 in 3.0 mi North 10.4 mph - N/A   Overcast
2:15 AM 60.8 °F 57.2 °F 88% 30.06 in 2.0 mi NNE 10.4 mph - 0.00 in   Light Drizzle
2:49 AM 60.8 °F 57.2 °F 88% 30.06 in 1.5 mi NNE 9.2 mph - 0.01 in Rain Light Rain
2:56 AM 60.1 °F 57.9 °F 93% 30.06 in 2.0 mi NNE 9.2 mph - 0.01 in Rain Light Rain
3:56 AM 59.0 °F 57.9 °F 96% 30.06 in 2.0 mi North 8.1 mph - 0.01 in Rain Light Rain
4:28 AM 59.0 °F 57.2 °F 94% 30.05 in 3.0 mi NNW 8.1 mph - 0.00 in   Overcast
4:56 AM 59.0 °F 57.9 °F 96% 30.06 in 3.0 mi NNW 8.1 mph - 0.01 in   Light Drizzle
5:31 AM 59.0 °F 57.2 °F 94% 30.05 in 2.0 mi North 11.5 mph - 0.00 in   Light Drizzle
5:56 AM 59.0 °F 57.0 °F 93% 30.06 in 2.0 mi North 12.7 mph - 0.01 in   Light Drizzle
6:12 AM 60.8 °F 57.2 °F 88% 30.04 in 6.0 mi North 12.7 mph - 0.00 in   Light Drizzle
6:56 AM 60.1 °F 57.9 °F 93% 30.06 in 6.0 mi North 12.7 mph - 0.00 in   Light Drizzle
7:56 AM 59.0 °F 57.0 °F 93% 30.07 in 3.0 mi North 11.5 mph - 0.00 in   Light Drizzle
8:54 AM 60.8 °F 57.2 °F 88% 30.09 in 5.0 mi North 10.4 mph - 0.00 in   Light Drizzle
8:56 AM 60.1 °F 57.0 °F 90% 30.09 in 5.0 mi North 12.7 mph - 0.00 in   Light Drizzle
9:43 AM 60.8 °F 57.2 °F 88% 30.09 in 2.5 mi North 11.5 mph - 0.00 in   Light Drizzle
9:56 AM 60.1 °F 57.9 °F 93% 30.10 in 2.0 mi North 13.8 mph - 0.00 in   Light Drizzle
10:56 AM 60.1 °F 57.9 °F 93% 30.10 in 2.0 mi North 12.7 mph - 0.00 in   Light Drizzle
11:30 AM 60.8 °F 57.2 °F 88% 30.09 in 4.0 mi North 10.4 mph - 0.00 in   Light Drizzle
11:48 AM 60.8 °F 57.2 °F 88% 30.09 in 7.0 mi North 9.2 mph - 0.00 in   Overcast
11:56 AM 60.1 °F 57.0 °F 90% 30.09 in 7.0 mi North 10.4 mph - 0.00 in   Overcast
12:56 PM 60.1 °F 57.0 °F 90% 30.08 in 10.0 mi North 9.2 mph - N/A   Overcast
1:56 PM 61.0 °F 57.9 °F 90% 30.06 in 10.0 mi North 8.1 mph - N/A   Overcast
2:56 PM 62.1 °F 57.9 °F 86% 30.05 in 10.0 mi North 6.9 mph - N/A   Overcast
3:56 PM 62.1 °F 59.0 °F 90% 30.05 in 10.0 mi North 6.9 mph - N/A   Overcast
4:56 PM 63.0 °F 59.0 °F 87% 30.05 in 10.0 mi North 6.9 mph - N/A   Overcast
5:56 PM 63.0 °F 59.0 °F 87% 30.04 in 6.0 mi North 5.8 mph - 0.00 in   Light Drizzle
6:20 PM 62.6 °F 60.8 °F 94% 30.03 in 10.0 mi North 4.6 mph - 0.01 in   Overcast
6:56 PM 63.0 °F 60.1 °F 90% 30.04 in 10.0 mi North 8.1 mph - 0.01 in   Overcast
7:56 PM 63.0 °F 60.1 °F 90% 30.05 in 10.0 mi NNW 5.8 mph - N/A   Overcast
8:56 PM 62.1 °F 60.1 °F 93% 30.06 in 6.0 mi NNW 4.6 mph - N/A   Overcast
9:56 PM 62.1 °F 60.1 °F 93% 30.05 in 3.0 mi North 3.5 mph - N/A   Overcast
10:56 PM 62.1 °F 60.1 °F 93% 30.05 in 4.0 mi North 3.5 mph - N/A   Overcast
11:56 PM 63.0 °F 61.0 °F 93% 30.04 in 2.5 mi Calm Calm - N/A   Overcast